Powrót do katalogu

DEIMOS

AktywnyNaukaSSO
NORAD 60526·PAYLOAD·🇺🇸 United States

Wystrzelony Aug 16, 2024 z Vandenberg Space Force Base

Loading…

Następne Przeloty (najbliższe 24 godziny)

TLE

ŚwieżeSource: Space-Track

Epoka: Sep 14, 2026, 11:39 UTC

1 60526U 24149BL  26257.48603439  .00016999  00000-0  33535-3 0  9994
2 60526  97.3742 345.1257 0003998 331.4693  28.6337 15.47244592116244

Śledź DEIMOS w czasie rzeczywistym z AllMySat

Download on the App Store